Amsterdam, Netherlands

6:56 AM CET on December 10, 2019 (GMT +0100)
Schiphol

Weather History for EHAM - October, 2019

Change the Weather History Date:

Friday, October 11, 2019

  Actual Average Record
Temperature  
Mean Temperature 58 °F -  
Max Temperature 61 °F 53 °F 72 °F (2018)
Min Temperature 55 °F 43 °F 36 °F (2016)
Degree Days  
Heating Degree Days 7    
Growing Degree Days 8 (Base 50)    
Moisture  
Dew Point 54 °F    
Average Humidity 84    
Maximum Humidity 94    
Minimum Humidity 69    
Precipitation  
Precipitation 0.08 in - - ()
Sea Level Pressure  
Sea Level Pressure 29.78 in    
Wind  
Wind Speed 20 mph ()    
Max Wind Speed 28 mph    
Max Gust Speed -    
Visibility 7.4 miles    
Events Rain    
Averages and records for this station are not official NWS values.
T = Trace of Precipitation, MM = Missing Value Source: Averaged Metar Reports

Daily Weather History Graph

Daily Weather History Graph

Search for Another Location

Airport or City:

Astronomy

Oct. 11, 2019 Rise Set
Actual Time 7:58 AM CEST 6:56 PM CEST
Civil Twilight 7:24 AM CEST 7:30 PM CEST
Nautical Twilight 6:44 AM CEST 8:09 PM CEST
Astronomical Twilight 6:05 AM CEST 8:49 PM CEST
Moon 6:43 PM CEST (10/11) 4:54 AM CEST (10/11)
Length of Visible Light 12h 05m
Length of Day
10h 57m
Waxing Gibbous, 94% of the Moon is Illuminated
Oct 11
Waxing Gibbous
Oct 13
Full
Oct 21
Last Quarter
Oct 28
New
Nov 4
First Quarter

Hourly Weather History & Observations

Time (CEST) Temp. Dew Point Humidity Pressure Visibility Wind Dir Wind Speed Gust Speed Precip Events Conditions
12:00 AM 56 °F 51 °F 76% 29.88 in 11 mi SW 20.1 mph - -   Partly Cloudy
12:25 AM 57.2 °F 50.0 °F 77% 29.86 in 6.2 mi SSW 19.6 mph - N/A   Mostly Cloudy
12:55 AM 57.2 °F 50.0 °F 77% 29.86 in 6.2 mi SSW 20.7 mph - N/A   Scattered Clouds
1:25 AM 57.2 °F 50.0 °F 77% 29.86 in 6.2 mi SSW 19.6 mph - N/A   Scattered Clouds
1:55 AM 57.2 °F 50.0 °F 77% 29.83 in 6.2 mi SSW 21.9 mph - N/A   Scattered Clouds
2:00 AM 57 °F 50 °F 71% 29.85 in 14 mi SSW 22.4 mph - -   Partly Cloudy
2:25 AM 57.2 °F 50.0 °F 77% 29.83 in 6.2 mi SSW 20.7 mph - N/A   Mostly Cloudy
2:55 AM 57.2 °F 50.0 °F 77% 29.83 in 6.2 mi SSW 21.9 mph - N/A   Mostly Cloudy
3:00 AM 58 °F 51 °F 69% 29.85 in 16 mi SSW 20.1 mph - - Rain Light Drizzle
3:25 AM 57.2 °F 51.8 °F 82% 29.83 in 6.2 mi SSW 23.0 mph - N/A Rain Light Rain
3:55 AM 57.2 °F 51.8 °F 82% 29.83 in 6.2 mi SSW 25.3 mph - N/A   Mostly Cloudy
4:25 AM 57.2 °F 51.8 °F 82% 29.83 in 6.2 mi SSW 23.0 mph - N/A Rain Light Rain
4:55 AM 55.4 °F 51.8 °F 88% 29.80 in 6.2 mi SSW 20.7 mph - N/A Rain Light Rain
5:00 AM 56 °F 53 °F 85% 29.83 in 7 mi SSW 20.1 mph - - Rain Heavy Rain
5:25 AM 57.2 °F 53.6 °F 88% 29.80 in 6.2 mi SSW 17.3 mph - N/A   Scattered Clouds
5:55 AM 57.2 °F 53.6 °F 88% 29.80 in 6.2 mi SW 13.8 mph - N/A Rain Light Rain
6:00 AM 57 °F 53 °F 83% 29.83 in 12 mi SW 15.7 mph - - Rain Light Drizzle
6:25 AM 57.2 °F 53.6 °F 88% 29.80 in 6.2 mi SSW 17.3 mph - N/A   Mostly Cloudy
6:55 AM 57.2 °F 53.6 °F 88% 29.80 in 6.2 mi SSW 18.4 mph - N/A Rain Light Rain
7:00 AM 57 °F 54 °F 85% 29.81 in 11 mi SSW 20.1 mph - - Rain Light Rain Showers
7:25 AM 57.2 °F 53.6 °F 88% 29.80 in 6.2 mi SSW 18.4 mph - N/A Rain Light Rain
7:55 AM 57.2 °F 53.6 °F 88% 29.80 in 6.2 mi SSW 19.6 mph - N/A   Mostly Cloudy
8:00 AM 57 °F 54 °F 84% 29.81 in 14 mi SSW 20.1 mph - - Rain Rain
8:25 AM 57.2 °F 53.6 °F 88% 29.80 in 6.2 mi SSW 19.6 mph - N/A   Mostly Cloudy
8:55 AM 57.2 °F 53.6 °F 88% 29.80 in 6.2 mi SSW 20.7 mph - N/A   Light Drizzle
9:00 AM 57 °F 53 °F 82% 29.81 in 15 mi SSW 20.1 mph - - Rain Rain
9:25 AM 57.2 °F 53.6 °F 88% 29.80 in 6.2 mi SSW 18.4 mph - N/A Rain Light Rain
9:55 AM 57.2 °F 53.6 °F 88% 29.80 in 4.3 mi SSW 18.4 mph - N/A Rain Light Rain
10:00 AM 57 °F 54 °F 85% 29.81 in 6 mi SSW 20.1 mph - - Rain Heavy Rain
10:25 AM 59.0 °F 53.6 °F 82% 29.80 in 6.2 mi SSW 23.0 mph - N/A   Overcast
10:55 AM 59.0 °F 53.6 °F 82% 29.80 in 6.2 mi SSW 20.7 mph - N/A Rain Light Rain
11:25 AM 59.0 °F 53.6 °F 82% 29.80 in 6.2 mi SSW 20.7 mph - N/A Rain Light Rain
11:55 AM 59.0 °F 55.4 °F 88% 29.80 in 6.2 mi SSW 21.9 mph - N/A Rain Light Rain
12:00 PM 58 °F 55 °F 86% 29.80 in 12 mi SSW 20.1 mph - - Rain Light Drizzle
12:25 PM 59.0 °F 55.4 °F 88% 29.80 in 6.2 mi SSW 20.7 mph - N/A Rain Light Rain
12:55 PM 59.0 °F 55.4 °F 88% 29.80 in 6.2 mi SSW 21.9 mph - N/A Rain Light Rain
1:00 PM 58 °F 55 °F 86% 29.80 in 11 mi SSW 22.4 mph - - Rain Light Rain
1:25 PM 59.0 °F 55.4 °F 88% 29.77 in 6.2 mi SSW 23.0 mph - N/A Rain Light Rain
1:55 PM 60.8 °F 55.4 °F 82% 29.77 in 6.2 mi SSW 24.2 mph - N/A Rain Light Rain
2:00 PM 59 °F 55 °F 83% 29.77 in 12 mi SSW 22.4 mph - - Rain Light Drizzle
2:25 PM 59.0 °F 55.4 °F 88% 29.77 in 6.2 mi SSW 23.0 mph - N/A Rain Light Rain
2:55 PM 59.0 °F 55.4 °F 88% 29.74 in 6.2 mi SSW 23.0 mph - N/A   Light Drizzle
3:00 PM 58 °F 55 °F 86% 29.76 in 12 mi SSW 22.4 mph - - Rain Light Rain
3:25 PM 59.0 °F 55.4 °F 88% 29.74 in 5.6 mi SSW 21.9 mph - N/A Rain Rain
3:55 PM 57.2 °F 55.4 °F 94% 29.74 in 5.0 mi SSW 21.9 mph - N/A Rain Light Drizzle
4:25 PM 59.0 °F 55.4 °F 88% 29.74 in 6.2 mi SSW 21.9 mph - N/A   Light Drizzle
4:55 PM 59.0 °F 55.4 °F 88% 29.71 in 6.2 mi SSW 27.6 mph - N/A   Light Drizzle
5:00 PM 58 °F 55 °F 86% 29.73 in 11 mi SSW 24.6 mph - - Rain Light Drizzle
5:25 PM 59.0 °F 55.4 °F 88% 29.71 in 6.2 mi SSW 24.2 mph - N/A   Light Drizzle
5:55 PM 59.0 °F 55.4 °F 88% 29.71 in 6.2 mi SSW 21.9 mph - N/A   Light Drizzle
6:00 PM 58 °F 55 °F 86% 29.73 in 8 mi SSW 22.4 mph - - Rain Drizzle
6:25 PM 57.2 °F 55.4 °F 94% 29.71 in 6.2 mi SSW 23.0 mph - N/A   Light Drizzle
6:55 PM 59.0 °F 55.4 °F 88% 29.71 in 6.2 mi SSW 21.9 mph - N/A   Overcast
7:00 PM 59 °F 55 °F 81% 29.71 in 28 mi SSW 22.4 mph - - Rain Rain
7:25 PM 59.0 °F 55.4 °F 88% 29.71 in 6.2 mi SSW 21.9 mph - N/A   Mostly Cloudy
7:55 PM 60.8 °F 55.4 °F 82% 29.71 in 6.2 mi SSW 24.2 mph - N/A   Mostly Cloudy
8:00 PM 60 °F 55 °F 78% 29.71 in 28 mi SSW 22.4 mph - -   Partly Cloudy
8:25 PM 60.8 °F 55.4 °F 82% 29.71 in 6.2 mi SSW 23.0 mph - N/A   Mostly Cloudy
8:55 PM 60.8 °F 55.4 °F 82% 29.68 in 6.2 mi SSW 23.0 mph - N/A   Mostly Cloudy
9:00 PM 61 °F 55 °F 75% 29.71 in 28 mi SSW 22.4 mph - -   Partly Cloudy
9:25 PM 60.8 °F 55.4 °F 82% 29.71 in 6.2 mi SSW 21.9 mph - N/A   Mostly Cloudy
9:55 PM 60.8 °F 55.4 °F 82% 29.71 in 6.2 mi SSW 23.0 mph - N/A   Mostly Cloudy
10:00 PM 61 °F 56 °F 77% 29.71 in 28 mi SSW 24.6 mph - -   Partly Cloudy
10:25 PM 60.8 °F 55.4 °F 82% 29.71 in 6.2 mi SW 25.3 mph - N/A Rain Light Rain
10:55 PM 60.8 °F 57.2 °F 88% 29.71 in 6.2 mi SW 25.3 mph - N/A Rain Light Drizzle
11:00 PM 60 °F 57 °F 86% 29.71 in 7 mi SW 26.8 mph - - Rain Light Drizzle
11:55 PM 60.8 °F 57.2 °F 88% 29.68 in 6.2 mi SW 19.6 mph - N/A Rain Light Rain